Home > Weather > Piraeus > Past weeks

Flag for Greece Past Weather in Piraeus, Greece — Yesterday and Last 2 Weeks

Now
75 °F

Passing clouds.


Feels Like: 77 °F
Forecast: 73 / 90 °F
Wind: 5 mph from North

Location: Elefsis Airport

Current Time: Aug 29, 2016 at 3:36:04 AM

Latest Report: Aug 29, 2016 at 2:50 AM


Visibility: N/A

Pressure: 29.98 "Hg

Humidity: 39%

Dew Point: 48 °F

Location of PiraeusLocation

Past Weather in Piraeus — Graph

°F

Piraeus Temperature Yesterday

Maximum temperature yesterday: 86 °F (at 12:50 PM)
Minimum temperature yesterday: 73 °F (at 12:50 AM)
Average temperature yesterday: 80 °F

High & Low Weather Summary for the Past Weeks

 TemperatureHumidityPressure
High97 °F (Aug 17, 3:50 PM)70% (Aug 19, 11:50 PM)30.12 "Hg (Aug 19, 11:50 PM)
Low68 °F (Aug 14, 2:50 AM)14% (Aug 16, 4:50 PM)29.74 "Hg (Aug 18, 3:50 PM)
Average82 °F37%29.91 "Hg
* Reported Aug 14 2:20 AM — Aug 29 2:20 AM, Piraeus, Weather by CustomWeather, © 2016

Note: Actual official high and low records may vary slightly from our data, if they occured in-between our weather recording intervals... More about our weather records

Advertising

Piraeus Weather History for the Previous 24 Hours

Scroll right to see more
 ConditionsComfort  
Time TempWeatherWind HumidityBarometerVisibility
2:20 AM
Mon, Aug 29
75 °FPassing clouds.5 mph39%29.98 "HgN/A
1:50 AM75 °FPassing clouds.5 mph39%29.98 "HgN/A
1:20 AM75 °FPassing clouds.5 mph39%29.98 "HgN/A
12:50 AM77 °FClear.No wind36%29.98 "Hg10 mi
12:20 AM77 °FPassing clouds.3 mph36%29.98 "HgN/A
11:50 PM
Sun, Aug 28
75 °FPassing clouds.3 mph39%29.98 "HgN/A
11:20 PM77 °FPassing clouds.No wind36%29.98 "HgN/A
9:20 PM79 °FPassing clouds.No wind34%29.98 "HgN/A
8:50 PM81 °FPassing clouds.6 mph34%29.98 "HgN/A
8:20 PM81 °FPassing clouds.8 mph32%29.98 "HgN/A
7:50 PM82 °FPassing clouds.8 mph30%29.98 "HgN/A
7:20 PM84 °FPassing clouds.10 mph31%29.98 "HgN/A
6:50 PM84 °FPassing clouds.12 mph31%29.98 "HgN/A
6:20 PM86 °FPassing clouds.12 mph29%29.98 "HgN/A
5:50 PM86 °FPassing clouds.14 mph29%29.95 "HgN/A
5:20 PM86 °FScattered clouds.13 mph29%29.98 "HgN/A
4:20 PM86 °FScattered clouds.13 mph29%29.98 "HgN/A
3:50 PM86 °FScattered clouds.13 mph29%29.98 "HgN/A
3:20 PM86 °FScattered clouds.12 mph29%29.98 "HgN/A
2:50 PM86 °FScattered clouds.14 mph31%30.01 "HgN/A
2:20 PM86 °FScattered clouds.12 mph31%30.01 "HgN/A
1:50 PM86 °FScattered clouds.12 mph31%30.01 "HgN/A
1:20 PM86 °FScattered clouds.12 mph31%30.01 "HgN/A
12:50 PM86 °FScattered clouds.18 mph29%30.01 "HgN/A
12:20 PM84 °FScattered clouds.13 mph33%30.01 "HgN/A
11:50 AM84 °FScattered clouds.16 mph33%30.04 "HgN/A
11:20 AM82 °FScattered clouds.12 mph37%30.04 "HgN/A
10:50 AM82 °FScattered clouds.14 mph37%30.04 "HgN/A
10:20 AM81 °FScattered clouds.9 mph37%30.04 "HgN/A
9:50 AM81 °FScattered clouds.12 mph39%30.04 "HgN/A
9:20 AM81 °FPassing clouds.12 mph39%30.04 "HgN/A
8:50 AM79 °FPassing clouds.9 mph42%30.01 "HgN/A
8:20 AM77 °FPassing clouds.7 mph44%30.01 "HgN/A
7:50 AM75 °FPassing clouds.No wind47%30.04 "HgN/A
7:20 AM73 °FPassing clouds.No wind47%30.01 "HgN/A
6:50 AM73 °FPassing clouds.3 mph47%30.01 "HgN/A
6:20 AM73 °FPassing clouds.3 mph44%30.01 "HgN/A
5:50 AM73 °FClear.5 mph38%30.01 "Hg10 mi
5:20 AM73 °FClear.5 mph38%30.01 "Hg10 mi
4:50 AM73 °FClear.5 mph38%30.01 "Hg10 mi
3:50 AM75 °FClear.3 mph34%30.01 "Hg10 mi
Weather by CustomWeather, © 2016

See weather overviewHow to use our weather pages